Torna al catalogo

KUIPER-00082

AttivoComunicazioniLEO
NORAD 64828·PAYLOAD·🇺🇸 United States

Lanciato Jul 16, 2025 da Cape Canaveral Space Force Station

Loading…

Prossimi Passaggi (prossime 24 ore)

TLE

AggiornatoSource: CelesTrak SupGP

Epoca: Sep 14, 2026, 19:53 UTC

1 64828C 25151N   26257.82881944 -.00001877  00000+0 -24566-3 0  2575
2 64828  51.9001 171.7520 0000971  83.1902 126.1654 14.79931562    12

Traccia KUIPER-00082 in tempo reale con AllMySat

Download on the App Store